Hourly Data Report for May 07, 2018

CLYDE RIVER A
NUNAVUT
Current Station Operator: NAVCAN

70°29'09.000" N
68°31'01.000" W
26.50 m
2400804
71090
YCY

Download Data

Hourly Data (May 2018)
Hourly Data Report for May 7, 2018
TIME
LST
Temp Definition
°C
Dew Point Definition
°C
Rel Hum Definition
%
Precip. Amount Definition
mm

Wind Dir Definition
10's deg

Wind Spd Definition
km/h
Visibility Definition
km
Stn Press Definition
kPa
Hmdx Definition


Wind Chill Definition


Weather Definition


00:00 -23.1 -25.2 83 0.0 29 4 16.1 100.65   -27 LegendNANA
01:00 -23.2 -24.7 88 0.0   0 16.1 100.65     LegendNANA
02:00 -25.1 -28.2 76 0.0   0 16.1 100.65     LegendNANA
03:00 -25.8 -28.3 80 0.0   0 16.1 100.64     LegendNANA
04:00 -24.9 -27.3 81 0.0   0 16.1 100.63     LegendNANA
05:00 -23.5 -26.2 79 0.0   0 16.1 100.60     LegendNANA
06:00 -22.9 -24.5 87 0.0 3 5 16.1 100.60   -28 LegendNANA
07:00 -21.6 -23.8 83 0.0 9 4 16.1 100.59   -25 LegendNANA
08:00 -20.3 -22.5 83 0.0 5 5 16.1 100.58   -25 LegendNANA
09:00 -18.3 -20.5 83 0.0 9 5 16.1 100.55   -22 LegendNANA
10:00 -15.5 -18.0 81 0.0 14 8 16.1 100.52   -21 Snow
11:00 -13.3 -15.5 84 0.0 13 21 16.1 100.52   -22 Snow
12:00 -12.6 -14.8 84 0.0 13 17 16.1 100.50   -20 Snow
13:00 -12.3 -14.4 84 0.0 13 24 16.1 100.51   -22 Snow
14:00 -12.2 -14.4 84 0.0 14 18 6.4 100.51   -20 Snow
15:00 -12.1 -14.3 84 0.0 14 15 16.1 100.52   -19 Snow
16:00 -12.7 -14.9 84 0.0 13 15 16.1 100.50   -20 Snow
17:00 -12.8 -14.7 86 0.0 13 9 16.1 100.52   -18 LegendNANA
18:00 -13.3 -14.9 88 0.0 12 5 16.1 100.52   -17 Snow
19:00 -13.3 -14.8 89 0.0 12 8 16.1 100.52   -18 Snow
20:00 -12.9 -14.6 87 0.0 15 8 16.1 100.52   -18 Snow
21:00 -12.8 -14.7 86 0.0 14 9 16.1 100.50   -18 Snow
22:00 -12.8 -14.7 86 0.0 15 5 16.1 100.46   -16 Snow
23:00 -12.8 -14.5 87 0.0 13 5 16.1 100.44   -16 Snow

Notes on Data Quality.

Legend

  • E = Estimated
  • M = Missing
  • NA = Not Available*
  • [empty] = Indicates an unobserved value
Date modified: